This is the latest recevied weather packets stored in our database for station/object N5UKZ-WX. If no packets are shown the sender has not sent any weather packets the latest 10 day(s).
| Time | Temp. | Humidity | Pressure | Rain* | Wind** | Luminosity | Snow |
|---|---|---|---|---|---|---|---|
| 1777440918 | 24.44° C | 86% | 1014.9 hPa | 0 mm | - | - | - |
| 1777440018 | 24.44° C | 85% | 1014.6 hPa | 0 mm | - | - | - |
| 1777439118 | 24.44° C | 85% | 1014.9 hPa | 0 mm | - | - | - |
| 1777438218 | 25° C | 84% | 1015.3 hPa | 0 mm | - | - | - |
| 1777437317 | 24.44° C | 84% | 1015.3 hPa | 0 mm | - | - | - |
| 1777436417 | 25° C | 83% | 1014.9 hPa | 0 mm | - | - | - |
| 1777435517 | 25° C | 83% | 1014.6 hPa | 0 mm | - | - | - |
| 1777434617 | 24.44° C | 82% | 1014.9 hPa | 0 mm | - | - | - |
| 1777433716 | 25° C | 81% | 1014.9 hPa | 0 mm | - | - | - |
| 1777432816 | 25.56° C | 81% | 1014.6 hPa | 0 mm | - | - | - |
| 1777431916 | 25.56° C | 80% | 1014.6 hPa | 0 mm | - | - | - |
| 1777431016 | 25.56° C | 79% | 1014.6 hPa | 0 mm | - | - | - |
| 1777430116 | 25.56° C | 79% | 1014.9 hPa | 0 mm | - | - | - |
| 1777429215 | 26.11° C | 78% | 1014.6 hPa | 0 mm | - | - | - |
| 1777428315 | 26.67° C | 77% | 1014.9 hPa | 0 mm | - | - | - |
| 1777427415 | 26.11° C | 76% | 1014.3 hPa | 0 mm | - | - | - |
| 1777426515 | 26.11° C | 75% | 1013.9 hPa | 0 mm | - | - | - |
| 1777425615 | 27.22° C | 74% | 1014.3 hPa | 0 mm | - | - | - |
| 1777424714 | 27.22° C | 73% | 1014.3 hPa | 0 mm | - | - | - |
| 1777423814 | 27.22° C | 72% | 1013.9 hPa | 0 mm | - | - | - |
| 1777422914 | 27.22° C | 71% | 1013.9 hPa | 0 mm | - | - | - |
| 1777422014 | 27.78° C | 70% | 1013.9 hPa | 0 mm | - | - | - |
| 1777421114 | 28.89° C | 69% | 1013.9 hPa | 0 mm | - | - | - |
| 1777420213 | 29.44° C | 67% | 1013.9 hPa | 0 mm | - | - | - |
| 1777419313 | 28.89° C | 66% | 1013.6 hPa | 0 mm | - | - | - |
* Rain latest hour (hover to see other rain measurements)
** Current wind speed in m/s (hover to see current wind gust speed)